Find Kosmos-980

NORAD ID: 10587 Int'l Des: 1978-005 Owner: GUKOSR Country: SU operational
LEOCIRCULAR

リアルタイム位置

3D地球を読み込み中...

Kosmos-980について

説明を読み込み中...

次回通過

Passes for default location (London). Set your location on the main map for personalized predictions.

高度履歴

Loading altitude history...

軌道要素

1 10587U 78005E 26106.70066184 -.00000012 00000-0 25467-4 0 9990
2 10587 74.0277 99.4594 0007520 140.5218 33.0537 12.48948120195077
Epoch: Apr 16, 2026 • Age: 9 hours

現在のステータス

高度 1477.9 km
速度 7.13 km/s
衛星直下点 71.68°N, 75.91°W
打ち上げ日 Jan 10, 1978
運用期間 48.2 years
タイプ other

技術仕様

分類 Payload
質量 60.00 kg
乾燥質量 60.00 kg
総質量 60.00 kg
長さ 0.80 m
直径 0.80 m
スパン 0.80 m
形状 Poly
製造者 NPOPM
バスタイプ Strela-1 11F625
フェーズステータス In Orbit
所有者/国 GUKOSR/SU

Most Searched